RH
20 20 21 21 21 21 21 22 22 23 23 24 24 24 24 24 24 23 22 21 21 21 21 21 21 22 23 24 23 22 22 21 21 21 18 19 18 18 18 18 17 16 16 14 13 12 12 12 12 13 12 12 11 13 13 15 15 15 22 23 24 28 21 16 16 17 20 21 22 21 20 21 21 21 21 23 24 23 23 22 22 22 23 24 24 23 23 23
21 21 22 22 23 22 22 22 22 23 23 23 23 22 22 22 21 20 19 18 17 17 17 16 17 17 18 20 22 22 22 21 21 22 20 20 20 19 18 17 17 16 15 15 14 12 12 11 11 11 11 11 11 13 13 14 14 14 19 19 22 25 16 14 15 15 19 21 21 22 21 22 22 22 22 24 26 24 23 23 23 24 24 24 25 24 23 23
24 24 25 26 26 26 25 25 24 23 23 23 22 21 20 19 19 18 17 17 16 16 15 15 15 15 15 16 17 18 19 20 20 20 21 20 20 20 19 19 19 18 17 16 16 15 15 14 13 13 13 13 14 16 16 16 15 14 16 17 19 20 15 15 15 15 18 19 21 23 23 23 24 22 23 24 25 25 25 25 25 25 25 25 25 25 25 24
27 27 27 27 28 27 26 25 24 23 22 21 21 20 19 18 18 18 18 18 17 17 17 17 17 17 17 17 17 18 18 20 20 18 19 18 18 18 18 18 18 18 18 17 17 17 16 15 15 14 14 15 16 18 19 19 19 19 20 22 20 18 17 16 16 16 17 18 20 22 22 24 23 22 23 23 25 27 25 25 25 26 26 27 27 27 26 25
28 27 27 27 28 27 26 25 24 23 22 21 20 20 20 21 21 21 21 21 21 20 21 21 21 22 22 21 22 21 21 25 23 20 20 19 19 19 19 19 19 19 19 18 19 18 18 17 16 15 14 14 16 17 19 20 21 22 22 24 23 21 21 21 19 18 18 18 19 21 22 23 22 22 24 24 26 27 24 23 25 26 26 27 27 27 27 27
30 29 29 29 29 28 26 26 25 23 23 23 23 24 25 25 25 25 24 24 24 24 25 26 25 25 26 25 25 25 26 29 26 23 23 23 22 22 20 19 18 18 18 18 19 19 19 18 17 16 15 15 17 18 19 20 21 23 23 22 23 22 24 24 23 23 21 21 23 23 22 22 22 23 24 24 25 25 23 24 25 26 27 26 27 27 27 28
31 30 30 30 30 29 27 25 22 22 23 25 26 27 28 28 27 26 25 24 24 24 25 26 25 25 26 26 26 27 27 27 27 26 25 24 24 22 20 19 18 18 18 18 19 19 19 18 17 16 15 16 17 18 19 21 22 24 24 23 24 24 25 25 25 25 25 26 26 25 23 23 23 24 23 23 24 24 25 26 26 28 28 28 28 28 29 30
33 32 31 31 31 29 26 23 21 22 24 25 27 29 29 28 26 25 24 23 22 23 24 24 25 25 25 26 25 25 26 26 26 25 24 23 22 21 21 21 20 21 21 21 21 21 21 20 19 17 17 18 19 21 22 22 24 24 23 23 25 26 27 28 28 27 27 28 26 25 25 25 24 24 24 25 26 27 28 29 30 30 30 30 30 31 31 32
36 33 32 31 30 27 25 23 23 24 26 28 29 30 30 29 26 24 23 22 21 22 23 24 24 24 24 25 25 25 26 27 26 24 23 23 22 22 23 23 23 23 24 25 25 25 25 25 24 22 22 22 22 24 25 26 27 25 24 24 26 27 28 28 29 29 29 28 26 27 29 28 26 26 27 28 29 30 31 31 32 32 32 33 33 34 35 35
37 34 32 30 28 26 24 24 25 27 29 31 32 32 32 31 28 25 22 22 23 24 24 24 24 24 25 24 25 26 26 26 25 24 24 24 24 23 23 22 21 21 22 22 22 23 23 24 24 23 24 25 27 29 28 30 30 27 26 27 28 29 29 29 30 29 30 29 27 29 31 29 28 30 33 32 32 32 32 33 33 33 34 35 36 37 39 40
36 33 31 30 27 25 24 24 26 30 33 32 32 33 32 30 26 22 21 21 23 24 25 24 23 23 24 23 24 25 25 25 24 23 22 21 20 20 19 18 17 16 16 16 16 16 15 16 17 18 22 26 28 30 31 31 30 29 29 29 30 29 29 30 31 30 30 30 28 29 32 32 32 34 36 34 34 33 32 34 35 35 37 38 40 41 43 43
34 32 30 28 26 24 23 25 28 31 33 32 31 31 30 26 22 19 19 20 20 22 23 23 22 22 22 21 23 24 22 22 20 19 18 17 16 16 16 16 16 15 15 15 15 15 15 15 16 18 21 24 26 29 32 32 30 31 32 33 34 33 32 31 31 30 30 32 31 30 34 38 39 39 38 36 36 35 35 38 38 39 41 42 43 43 43 43
32 29 28 24 20 19 21 26 29 30 29 28 28 28 26 23 21 20 21 20 20 21 22 23 23 22 21 21 21 20 19 18 17 17 16 16 16 16 16 16 16 17 17 17 17 18 19 19 20 21 21 23 25 27 30 30 30 32 33 35 37 39 40 37 35 34 34 36 34 34 42 47 46 43 41 41 40 39 40 42 42 43 43 43 42 41 39 39
27 24 21 17 16 18 23 27 28 28 25 25 25 24 24 23 23 23 22 22 21 21 23 22 20 18 17 18 17 17 16 15 15 15 15 15 15 16 16 17 17 17 17 17 17 18 19 20 21 22 23 25 26 28 33 34 34 37 36 38 43 44 44 42 43 43 44 45 42 45 54 55 51 48 46 44 42 41 41 42 43 43 42 40 37 35 34 33
22 19 15 15 17 22 26 28 27 25 23 22 22 22 23 23 23 23 22 21 20 20 20 18 16 15 15 15 15 14 13 13 13 13 14 14 14 14 14 15 16 17 17 17 17 17 17 17 18 20 22 24 27 32 38 40 42 44 40 40 46 44 41 42 44 44 45 46 44 47 53 51 47 45 42 40 38 37 38 40 41 40 38 35 32 31 30 29
18 15 15 18 23 27 29 29 26 23 21 19 19 20 21 21 20 20 20 19 19 17 16 16 16 15 15 14 13 13 13 13 13 13 13 13 13 12 12 13 14 14 14 14 15 15 15 15 16 18 20 22 26 31 33 37 40 42 39 37 39 39 39 40 39 40 40 39 39 40 42 43 41 38 36 35 35 35 37 40 40 39 36 32 29 27 26 25
15 15 20 25 29 31 29 27 24 22 21 19 18 18 18 18 17 16 17 18 18 16 14 15 16 16 15 14 15 14 14 15 14 13 12 12 12 12 11 11 12 12 12 12 13 13 13 15 16 18 20 20 23 27 27 31 32 32 36 35 36 38 39 40 38 39 38 37 38 37 37 40 39 37 35 35 36 37 39 40 39 36 30 27 25 24 23 23
17 22 28 32 33 30 26 24 22 23 22 19 18 17 16 16 16 16 16 16 16 15 15 14 15 17 16 15 16 15 14 15 14 13 11 11 12 11 12 12 12 12 13 13 13 14 14 15 18 19 22 21 22 26 27 28 28 29 33 34 36 39 41 42 40 37 37 39 40 37 38 41 40 39 38 37 37 36 35 35 33 28 25 24 23 22 22 21
25 31 35 34 31 27 24 23 23 23 22 19 16 15 15 15 15 16 16 16 16 16 17 15 16 18 17 17 16 14 13 14 13 12 11 12 13 13 13 14 14 13 14 15 16 16 16 18 22 23 25 25 23 26 27 28 30 31 33 35 37 39 39 40 38 36 38 42 43 40 40 41 42 41 38 35 33 30 31 31 28 24 23 23 22 21 21 20
34 35 34 30 27 26 26 25 23 21 19 18 15 15 16 15 15 17 16 15 16 16 16 16 16 16 17 18 15 12 12 12 13 12 12 13 13 14 14 14 14 14 17 20 19 18 18 22 26 26 26 26 25 25 26 30 33 33 34 36 38 38 37 36 37 38 39 43 43 39 37 38 41 40 34 31 30 29 31 31 27 23 22 22 21 21 20 20
36 32 27 25 25 25 26 24 21 17 17 17 16 16 18 16 17 18 17 17 16 16 16 17 16 15 16 16 13 12 12 12 13 13 13 13 14 15 15 15 16 17 19 20 20 18 18 22 24 24 23 23 24 26 26 28 31 31 31 32 32 32 33 33 36 37 37 39 39 36 36 38 39 37 32 29 28 28 29 29 26 21 21 21 21 21 20 20
32 27 25 25 25 24 23 22 18 16 17 17 15 15 17 16 15 16 17 18 16 16 17 17 16 14 14 14 13 13 12 14 14 14 15 13 13 14 14 16 18 18 18 20 22 19 19 22 22 21 20 20 24 27 27 27 29 30 31 33 29 27 30 33 36 37 35 36 37 36 35 35 35 33 29 25 25 26 26 26 24 20 20 21 21 21 21 21
28 26 25 24 23 22 20 19 18 18 17 15 14 13 13 13 14 15 16 18 17 17 17 16 15 13 14 14 14 13 13 16 15 14 14 13 12 12 13 15 17 17 18 21 23 21 21 21 21 20 19 20 24 28 31 31 30 28 27 27 25 23 29 31 31 33 32 33 36 36 34 34 34 32 27 23 23 24 24 24 22 19 20 21 21 21 21 21
26 27 24 22 21 19 19 19 18 18 16 14 13 12 12 13 15 16 16 18 18 17 16 14 14 14 14 14 15 14 14 14 14 13 13 13 12 12 14 15 17 19 20 22 22 21 22 21 21 23 22 22 22 26 31 31 29 26 23 22 21 21 25 26 26 29 32 34 35 34 32 32 33 32 29 25 23 23 24 26 22 20 21 20 20 21 21 22
26 24 21 20 20 20 20 20 19 18 16 14 13 12 13 13 16 17 17 20 18 16 16 14 15 15 14 14 14 14 13 12 12 12 12 13 14 15 16 15 18 22 23 22 21 21 21 20 22 24 23 21 19 21 23 24 23 21 20 21 20 21 23 25 28 31 34 35 35 32 28 29 34 35 32 28 27 25 25 26 23 21 22 22 22 23 23 24
24 20 19 20 21 20 21 21 19 17 16 14 12 12 12 13 16 15 19 27 23 15 15 15 15 15 13 13 12 12 14 13 12 12 12 13 14 17 19 18 20 23 23 21 20 21 20 20 22 23 21 18 17 16 16 19 22 16 16 20 20 23 26 27 28 32 35 34 33 31 26 27 32 34 32 29 28 27 25 26 25 23 24 23 24 25 25 25
21 20 21 22 20 19 20 19 17 15 13 11 10 10 10 13 15 12 18 31 25 15 15 16 15 14 12 12 11 12 15 15 13 12 14 14 14 17 20 23 23 22 23 20 19 19 19 19 19 17 17 15 13 13 13 18 19 12 13 19 21 23 25 27 28 31 34 32 31 30 26 27 27 26 29 28 27 27 26 27 27 25 26 25 25 26 26 26
22 23 23 22 20 18 18 15 13 11 10 8 8 9 10 14 14 13 21 26 18 16 17 16 14 12 11 11 11 13 15 15 15 15 15 14 14 16 20 24 24 23 22 19 17 17 17 18 16 14 14 12 10 11 13 16 15 14 18 21 22 22 25 28 28 31 33 31 31 29 25 26 24 23 29 28 27 29 28 28 28 27 27 25 25 26 26 26
21 20 20 19 17 16 13 11 10 8 7 7 8 9 12 13 13 18 25 20 14 18 18 14 14 12 11 12 13 13 14 15 16 16 14 14 15 16 19 21 22 22 21 18 18 16 15 15 13 13 13 12 12 12 16 15 12 15 20 23 23 22 25 28 27 31 33 31 31 25 20 24 22 23 31 30 30 31 29 29 29 28 28 25 25 26 27 27
16 16 15 14 13 11 9 8 7 7 8 8 8 9 11 12 18 24 20 13 15 19 16 13 14 13 15 17 17 17 16 16 16 14 13 14 14 15 18 20 20 23 24 21 19 16 15 14 13 13 12 12 12 12 15 14 12 14 18 22 20 17 22 26 27 29 26 25 28 22 17 22 24 24 29 30 30 31 29 29 29 27 26 25 25 27 27 27
14 13 12 11 9 8 7 7 6 7 8 8 8 9 9 14 27 28 15 13 19 19 16 15 16 17 20 21 20 19 19 17 16 16 17 17 17 17 19 20 23 27 27 23 19 17 17 15 13 12 11 12 12 11 12 13 13 13 16 17 13 12 16 19 24 26 18 18 23 21 17 22 25 22 23 27 29 29 29 28 28 27 27 26 26 27 27 26
13 12 9 8 7 7 7 7 7 8 8 8 9 10 11 14 21 22 17 18 19 17 17 17 18 21 23 24 22 21 22 19 17 19 23 24 23 22 21 21 25 27 25 23 20 18 17 15 15 13 11 11 12 11 12 15 15 13 16 18 16 20 19 19 27 26 17 16 18 17 18 21 23 19 18 24 27 27 27 26 26 26 26 26 26 26 26 26
11 9 8 7 7 7 7 7 7 8 8 9 9 12 18 18 15 16 20 20 16 17 19 19 22 24 24 24 22 22 23 20 18 19 22 25 25 24 23 21 23 22 21 22 23 21 17 15 16 14 11 10 11 11 10 13 14 12 16 17 18 25 22 23 34 27 16 18 17 16 21 23 21 16 18 24 24 24 25 23 24 25 25 25 25 26 26 27
9 9 9 9 9 8 8 7 7 8 9 9 10 15 18 17 15 15 19 20 19 20 21 21 25 24 22 22 20 22 23 19 20 21 22 24 25 24 24 21 21 22 23 21 21 21 17 13 13 12 10 11 13 13 11 13 15 14 17 15 15 22 19 18 26 22 17 23 21 17 21 25 20 17 24 27 24 24 24 24 26 26 27 27 26 27 27 29
8 10 10 10 11 10 9 8 6 8 9 8 13 19 17 13 15 17 19 21 22 22 22 24 26 23 22 23 21 22 20 18 22 25 24 24 23 22 22 20 20 22 23 18 16 19 16 12 13 12 11 12 13 14 14 15 13 12 16 14 12 20 23 23 26 24 23 31 34 27 21 23 20 20 28 28 24 25 25 25 27 26 28 29 29 30 30 30
9 10 10 10 11 10 10 8 7 8 9 9 14 20 18 15 16 19 20 21 21 23 23 23 25 24 23 24 24 22 20 18 22 25 25 24 22 21 20 20 18 19 21 18 18 21 18 14 16 15 12 14 13 14 15 13 10 11 13 12 12 18 27 31 29 28 29 30 32 26 18 18 17 18 28 29 27 28 27 27 27 27 29 30 30 32 32 32
10 10 10 10 10 9 9 9 10 9 7 10 16 18 18 18 19 23 24 21 21 24 23 20 20 21 22 22 23 23 21 19 20 24 24 22 19 19 20 20 17 17 20 19 18 22 21 17 18 17 14 13 15 15 16 14 12 14 12 12 16 21 29 33 29 31 36 33 28 22 18 20 17 17 24 27 28 28 28 29 29 28 30 31 32 33 33 33
9 10 9 9 9 9 8 6 9 9 6 13 22 20 19 20 19 22 23 22 23 25 24 22 19 19 21 21 21 22 23 20 21 24 23 21 19 18 20 19 16 17 20 19 17 19 20 17 16 18 15 14 17 16 18 18 14 15 15 14 16 17 23 29 26 26 29 32 34 30 24 22 21 23 23 22 25 27 28 31 32 32 32 33 34 34 34 34
10 10 9 9 8 7 7 6 6 6 7 16 24 21 20 22 19 19 22 22 24 24 23 22 20 20 22 21 21 22 22 20 22 23 20 19 20 18 18 18 16 17 18 17 16 16 19 16 13 16 16 15 17 16 19 20 17 17 19 19 21 20 23 24 24 25 27 34 42 38 32 26 22 25 23 18 22 26 27 31 34 34 33 33 34 35 35 35
10 9 9 8 7 6 6 6 5 9 15 20 23 21 20 20 18 19 22 22 22 22 21 22 22 21 22 22 21 21 23 23 23 23 21 20 20 19 19 20 20 21 18 16 16 17 18 14 11 14 15 15 16 17 18 19 19 22 22 23 23 23 23 22 23 29 31 39 47 43 38 29 18 21 22 18 22 24 26 30 32 32 31 31 34 35 35 35
9 9 8 6 7 7 5 7 11 18 22 22 22 23 21 18 17 20 22 22 21 20 20 23 23 22 22 23 21 21 24 26 25 25 23 22 21 19 20 21 24 24 18 15 17 18 14 12 12 15 13 13 16 17 17 18 21 23 24 26 26 24 24 21 23 30 32 37 44 43 38 24 15 20 21 18 22 23 24 29 30 29 29 30 33 35 36 36
8 10 9 6 6 5 6 12 18 22 23 22 21 21 21 19 18 19 19 20 21 19 19 21 23 24 24 23 22 23 25 25 26 25 24 23 22 20 19 21 23 23 19 17 18 17 16 16 17 14 12 13 16 16 17 18 20 21 21 25 28 29 28 24 25 31 32 34 38 42 42 27 16 22 23 20 22 21 22 27 28 28 28 30 33 35 37 38
7 9 8 6 7 5 6 16 20 21 22 21 19 19 20 20 19 19 19 20 20 19 20 22 22 22 22 22 23 24 23 22 24 25 25 26 25 20 19 20 20 21 21 19 19 18 18 18 15 15 16 15 14 16 18 19 20 22 22 23 25 28 29 29 32 34 32 33 33 40 45 28 16 23 25 22 23 23 24 27 27 28 29 31 34 36 38 40
6 7 7 7 7 5 9 16 19 21 20 18 18 19 18 18 19 21 21 21 21 21 22 24 22 20 20 23 24 23 22 21 22 24 25 26 24 21 20 20 18 18 17 17 19 16 15 15 14 14 16 15 16 19 20 19 21 22 23 22 23 27 29 31 35 36 35 33 30 37 40 23 15 25 27 24 27 27 27 27 28 30 31 32 35 37 39 42
6 6 6 6 6 6 11 15 17 20 22 20 20 21 18 17 19 21 21 20 20 21 20 20 20 21 22 24 23 24 24 22 21 23 24 25 25 24 23 20 17 15 14 16 17 14 14 15 13 11 11 12 14 16 15 17 19 19 20 21 22 26 26 26 32 38 38 34 31 33 31 17 13 22 24 25 29 29 28 28 29 32 33 35 37 39 41 44
7 8 9 8 7 7 11 12 13 18 22 23 21 20 21 20 18 20 20 18 19 20 19 19 20 22 23 24 24 25 25 24 23 24 25 26 27 26 24 21 19 16 15 15 15 17 21 18 14 13 13 11 11 10 11 14 14 12 15 19 22 25 24 26 35 39 35 36 36 29 22 17 16 17 19 21 24 28 29 28 29 31 33 35 38 40 42 45
9 12 14 12 9 11 14 13 13 15 18 20 19 19 20 21 20 20 19 18 19 20 20 21 21 22 23 23 25 25 25 25 24 24 27 28 28 26 25 24 23 20 19 17 16 19 19 15 16 18 15 12 12 11 12 13 12 11 13 16 20 25 26 26 30 29 27 34 34 22 19 23 20 16 18 20 21 25 28 27 28 31 33 37 39 39 42 45
11 14 14 12 11 15 17 15 14 16 18 19 21 20 21 22 21 21 20 19 20 20 21 23 24 24 24 25 25 26 26 25 24 25 27 28 28 27 25 26 25 22 21 20 18 18 16 13 17 20 18 18 17 15 14 15 15 14 15 15 17 23 27 25 23 22 24 28 24 16 20 24 20 17 19 21 23 26 27 28 30 33 35 38 39 40 42 45
11 12 12 12 12 15 17 14 13 16 19 21 23 22 23 22 20 21 24 22 22 22 22 23 25 26 28 28 26 27 27 24 22 25 29 28 28 28 27 27 27 25 24 23 23 21 17 20 24 24 22 21 18 16 17 17 17 17 18 17 16 20 25 24 22 22 24 25 20 17 21 22 19 20 21 22 25 27 28 30 33 34 36 38 40 42 44 47
10 10 10 12 13 14 15 14 13 17 20 21 21 20 24 24 21 22 25 23 24 25 23 25 27 28 30 30 28 29 29 26 24 26 29 28 27 29 30 28 28 28 27 27 29 23 19 27 33 29 26 23 17 17 18 18 20 21 19 18 17 19 22 24 24 23 25 27 24 22 26 26 21 22 24 25 27 28 30 33 34 36 38 40 42 45 47 49
8 8 8 12 14 15 15 14 16 20 21 20 20 20 23 26 24 23 25 24 24 25 25 26 28 30 30 30 30 29 29 29 28 28 28 27 25 27 27 26 27 30 29 29 31 27 24 30 33 30 29 25 19 19 20 19 21 21 17 16 16 18 22 23 24 24 25 26 25 27 30 27 21 22 25 27 28 29 32 33 35 37 40 42 45 47 49 52
8 9 8 11 14 16 15 16 19 20 18 18 21 22 23 25 24 23 23 23 24 23 23 25 28 29 30 30 30 30 27 27 28 28 28 28 27 26 25 25 26 29 31 34 35 34 32 31 32 33 33 31 28 28 28 26 25 22 17 15 14 16 20 21 20 22 23 23 24 26 25 21 20 24 28 28 29 31 32 33 35 38 41 43 47 49 51 53